| time (UTC) | temp F | wind direction | speed MPH | gust MPH | rain 1hr in | rain 24hr in | rain mn in | humidity % | barometer mb |
| 20260509062902 | 56 | 174 | 0.0 | 0.0 | 0.00 | 0.00 | 0.00 | 93 | 1013.6 |
| 20260509061853 | 56 | 174 | 0.0 | 0.0 | 0.00 | 0.00 | 0.00 | 93 | 1013.5 |
| 20260509061501 | 55 | 174 | 0.0 | 0.0 | 0.00 | 0.00 | 0.00 | 93 | 1013.6 |
| 20260509060003 | 55 | 174 | 0.0 | 0.0 | 0.00 | 0.00 | 0.00 | 93 | 1013.7 |
| 20260509055717 | 56 | 174 | 0.0 | 0.0 | 0.00 | 0.00 | 0.00 | 93 | 1013.7 |
| 20260509054741 | 56 | 174 | 0.0 | 0.0 | 0.00 | 0.00 | 0.00 | 93 | 1013.7 |
| 20260509054604 | 55 | 174 | 0.0 | 0.0 | 0.00 | 0.00 | 0.00 | 92 | 1013.8 |
| 20260509053714 | 56 | 174 | 0.0 | 0.0 | 0.00 | 0.00 | 0.00 | 93 | 1013.7 |
| 20260509053002 | 55 | 174 | 0.0 | 0.0 | 0.00 | 0.00 | 0.00 | 92 | 1013.8 |
| 20260509052644 | 56 | 174 | 0.0 | 0.0 | 0.00 | 0.00 | 0.00 | 92 | 1013.8 |
| 20260509051653 | 56 | 174 | 0.0 | 0.0 | 0.00 | 0.00 | 0.00 | 92 | 1013.7 |
| 20260509051605 | 55 | 174 | 0.0 | 0.0 | 0.00 | 0.00 | 0.00 | 92 | 1013.7 |
| 20260509050106 | 56 | 174 | 0.0 | 0.0 | 0.00 | 0.00 | 0.00 | 92 | 1013.7 |
| 20260509044503 | 56 | 174 | 0.0 | 0.0 | 0.00 | 0.00 | 0.00 | 92 | 1013.7 |
| 20260509044327 | 56 | 174 | 0.0 | 0.0 | 0.00 | 0.00 | 0.00 | 92 | 1013.6 |
| 20260509043307 | 57 | 174 | 0.0 | 0.0 | 0.00 | 0.00 | 0.00 | 92 | 1013.5 |
| 20260509043105 | 56 | 174 | 0.0 | 0.0 | 0.00 | 0.00 | 0.00 | 92 | 1013.5 |
| 20260509042307 | 57 | 174 | 0.0 | 0.0 | 0.00 | 0.00 | 0.00 | 91 | 1013.4 |
| 20260509041501 | 56 | 174 | 0.0 | 0.0 | 0.00 | 0.00 | 0.00 | 91 | 1013.4 |
| 20260509041258 | 57 | 174 | 0.0 | 0.0 | 0.00 | 0.00 | 0.00 | 91 | 1013.4 |
| 20260509040258 | 57 | 174 | 0.0 | 0.0 | 0.00 | 0.00 | 0.00 | 91 | 1013.3 |
| 20260509040002 | 56 | 174 | 0.0 | 0.0 | 0.00 | 0.00 | 0.00 | 91 | 1013.3 |
| 20260509035306 | 57 | 174 | 0.0 | 0.0 | 0.00 | 0.00 | 0.00 | 90 | 1013.3 |
| 20260509034608 | 57 | 174 | 0.0 | 0.0 | 0.00 | 0.00 | 0.00 | 91 | 1013.3 |
| 20260509034258 | 57 | 174 | 0.0 | 0.0 | 0.00 | 0.00 | 0.00 | 90 | 1013.2 |
| 20260509033229 | 58 | 174 | 0.0 | 0.0 | 0.00 | 0.00 | 0.00 | 90 | 1013.1 |
| 20260509033003 | 57 | 174 | 0.0 | 0.0 | 0.00 | 0.00 | 0.00 | 90 | 1013.0 |
| 20260509031602 | 58 | 210 | 0.0 | 1.0 | 0.00 | 0.00 | 0.00 | 90 | 1012.9 |
| 20260509031025 | 59 | 160 | 0.0 | 0.0 | 0.00 | 0.00 | 0.00 | 90 | 1012.8 |
| 20260509025951 | 59 | 153 | 0.0 | 0.0 | 0.00 | 0.00 | 0.00 | 90 | 1012.6 |
| 20260509024952 | 59 | 245 | 0.0 | 1.0 | 0.00 | 0.00 | 0.00 | 89 | 1012.6 |
| 20260509024503 | 59 | 243 | 0.0 | 1.0 | 0.00 | 0.00 | 0.00 | 89 | 1012.7 |
| 20260509023922 | 59 | 189 | 0.0 | 0.0 | 0.00 | 0.00 | 0.00 | 89 | 1012.6 |
| 20260509023004 | 59 | 205 | 1.0 | 4.0 | 0.00 | 0.00 | 0.00 | 88 | 1012.5 |
| 20260509021603 | 60 | 168 | 0.0 | 3.0 | 0.00 | 0.00 | 0.00 | 87 | 1012.5 |
| 20260509020556 | 61 | 276 | 0.0 | 4.0 | 0.00 | 0.00 | 0.00 | 87 | 1012.4 |
| 20260509015555 | 61 | 250 | 0.0 | 3.0 | 0.00 | 0.00 | 0.00 | 86 | 1012.3 |
| 20260509014606 | 62 | 245 | 1.0 | 3.0 | 0.00 | 0.00 | 0.00 | 85 | 1012.3 |
| 20260509014501 | 61 | 193 | 0.0 | 4.0 | 0.00 | 0.00 | 0.00 | 85 | 1012.4 |
| 20260509013537 | 62 | 200 | 2.0 | 4.0 | 0.00 | 0.00 | 0.00 | 84 | 1012.4 |
| 20260509013111 | 62 | 233 | 2.0 | 5.0 | 0.00 | 0.00 | 0.00 | 83 | 1012.5 |
| 20260509012533 | 63 | 169 | 0.0 | 6.0 | 0.00 | 0.00 | 0.00 | 83 | 1012.4 |
| 20260509011535 | 63 | 203 | 2.0 | 6.0 | 0.00 | 0.00 | 0.00 | 82 | 1012.4 |
| 20260509011506 | 63 | 167 | 3.0 | 7.0 | 0.00 | 0.00 | 0.00 | 82 | 1012.5 |
| 20260509010011 | 63 | 158 | 0.0 | 8.0 | 0.00 | 0.00 | 0.00 | 81 | 1012.3 |
| 20260509005400 | 65 | 204 | 2.0 | 8.0 | 0.00 | 0.00 | 0.00 | 80 | 1012.3 |
| 20260509004604 | 65 | 161 | 3.0 | 7.0 | 0.00 | 0.00 | 0.00 | 79 | 1012.3 |
| 20260509004338 | 65 | 225 | 1.0 | 7.0 | 0.00 | 0.00 | 0.00 | 79 | 1012.2 |
| 20260509003315 | 66 | 110 | 1.0 | 7.0 | 0.00 | 0.00 | 0.00 | 79 | 1012.3 |
| 20260509003004 | 66 | 209 | 4.0 | 8.0 | 0.00 | 0.00 | 0.00 | 77 | 1012.3 |
| 20260509002259 | 66 | 220 | 3.0 | 6.0 | 0.00 | 0.00 | 0.00 | 77 | 1012.3 |
| 20260509001606 | 66 | 137 | 3.0 | 8.0 | 0.00 | 0.00 | 0.00 | 77 | 1012.4 |
| 20260509001254 | 67 | 247 | 2.0 | 7.0 | 0.00 | 0.00 | 0.00 | 76 | 1012.3 |
| 20260509000230 | 67 | 252 | 3.0 | 9.0 | 0.00 | 0.00 | 0.00 | 76 | 1012.3 |
| 20260508235242 | 68 | 212 | 3.0 | 9.0 | 0.00 | 0.00 | 0.00 | 74 | 1012.3 |
| 20260508234502 | 68 | 205 | 3.0 | 8.0 | 0.00 | 0.00 | 0.00 | 73 | 1012.4 |
| 20260508234249 | 69 | 205 | 2.0 | 7.0 | 0.00 | 0.00 | 0.00 | 73 | 1012.3 |
| 20260508233232 | 70 | 169 | 2.0 | 8.0 | 0.00 | 0.00 | 0.00 | 72 | 1012.4 |
| 20260508233103 | 69 | 131 | 2.0 | 9.0 | 0.00 | 0.00 | 0.00 | 73 | 1012.4 |
| 20260508232213 | 70 | 205 | 3.0 | 8.0 | 0.00 | 0.00 | 0.00 | 71 | 1012.4 |
| 20260508231502 | 70 | 250 | 4.0 | 9.0 | 0.00 | 0.00 | 0.00 | 69 | 1012.5 |
| 20260508231232 | 71 | 244 | 2.0 | 8.0 | 0.00 | 0.00 | 0.00 | 68 | 1012.4 |
| 20260508230251 | 72 | 193 | 2.0 | 8.0 | 0.00 | 0.00 | 0.00 | 68 | 1012.6 |
| 20260508230004 | 71 | 139 | 2.0 | 9.0 | 0.00 | 0.00 | 0.00 | 69 | 1012.6 |
| 20260508225258 | 71 | 222 | 2.0 | 8.0 | 0.00 | 0.00 | 0.00 | 68 | 1012.7 |
| 20260508224614 | 71 | 215 | 3.0 | 9.0 | 0.00 | 0.00 | 0.00 | 68 | 1012.9 |
| 20260508224315 | 72 | 188 | 3.0 | 10.0 | 0.00 | 0.00 | 0.00 | 69 | 1012.8 |
| 20260508223317 | 71 | 148 | 3.0 | 10.0 | 0.00 | 0.00 | 0.00 | 69 | 1012.9 |
| 20260508223003 | 71 | 227 | 4.0 | 11.0 | 0.00 | 0.00 | 0.00 | 67 | 1013.0 |
| 20260508222247 | 71 | 275 | 3.0 | 8.0 | 0.00 | 0.00 | 0.00 | 69 | 1013.0 |
| 20260508221611 | 71 | 9 | 3.0 | 8.0 | 0.00 | 0.00 | 0.00 | 68 | 1013.1 |
| 20260508221306 | 72 | 235 | 3.0 | 9.0 | 0.00 | 0.00 | 0.00 | 68 | 1013.2 |
| 20260508220307 | 72 | 207 | 3.0 | 9.0 | 0.00 | 0.00 | 0.00 | 67 | 1013.4 |
| 20260508215324 | 72 | 227 | 2.0 | 9.0 | 0.00 | 0.00 | 0.00 | 66 | 1013.5 |
| 20260508214501 | 71 | 183 | 2.0 | 9.0 | 0.00 | 0.00 | 0.00 | 68 | 1013.5 |
| 20260508214322 | 72 | 261 | 4.0 | 8.0 | 0.00 | 0.00 | 0.00 | 67 | 1013.5 |
| 20260508213335 | 73 | 205 | 2.0 | 7.0 | 0.00 | 0.00 | 0.00 | 65 | 1013.6 |
| 20260508213103 | 73 | 268 | 4.0 | 7.0 | 0.00 | 0.00 | 0.00 | 65 | 1013.7 |
| 20260508212347 | 72 | 213 | 3.0 | 8.0 | 0.00 | 0.00 | 0.00 | 69 | 1013.7 |
| 20260508211502 | 71 | 205 | 2.0 | 9.0 | 0.00 | 0.00 | 0.00 | 69 | 1013.8 |
| 20260508210154 | 73 | 155 | 3.0 | 9.0 | 0.00 | 0.00 | 0.00 | 66 | 1013.8 |
| 20260508205150 | 71 | 205 | 4.0 | 10.0 | 0.00 | 0.00 | 0.00 | 70 | 1013.9 |
| 20260508204603 | 71 | 220 | 5.0 | 8.0 | 0.00 | 0.00 | 0.00 | 68 | 1014.0 |
| 20260508203003 | 71 | 217 | 4.0 | 10.0 | 0.00 | 0.00 | 0.00 | 68 | 1014.3 |
| 20260508202932 | 72 | 221 | 4.0 | 9.0 | 0.00 | 0.00 | 0.00 | 68 | 1014.2 |
| 20260508201604 | 70 | 232 | 3.0 | 9.0 | 0.00 | 0.00 | 0.00 | 69 | 1014.5 |
| 20260508200750 | 72 | 255 | 2.0 | 7.0 | 0.00 | 0.00 | 0.00 | 68 | 1014.3 |
| 20260508200112 | 71 | 250 | 2.0 | 8.0 | 0.00 | 0.00 | 0.00 | 69 | 1014.4 |
| 20260508195726 | 71 | 186 | 2.0 | 7.0 | 0.00 | 0.00 | 0.00 | 69 | 1014.3 |
| 20260508194652 | 71 | 157 | 3.0 | 7.0 | 0.00 | 0.00 | 0.00 | 68 | 1014.4 |
| 20260508194511 | 71 | 209 | 4.0 | 8.0 | 0.00 | 0.00 | 0.00 | 69 | 1014.6 |
| 20260508193657 | 71 | 286 | 2.0 | 7.0 | 0.00 | 0.00 | 0.00 | 69 | 1014.6 |
| 20260508193107 | 70 | 212 | 3.0 | 7.0 | 0.00 | 0.00 | 0.00 | 69 | 1014.7 |
| 20260508192715 | 71 | 242 | 2.0 | 7.0 | 0.00 | 0.00 | 0.00 | 69 | 1014.6 |
| 20260508191659 | 70 | 291 | 2.0 | 7.0 | 0.00 | 0.00 | 0.00 | 70 | 1014.8 |
| 20260508191505 | 69 | 198 | 2.0 | 7.0 | 0.00 | 0.00 | 0.00 | 69 | 1015.0 |
| 20260508190715 | 69 | 158 | 3.0 | 7.0 | 0.00 | 0.00 | 0.00 | 72 | 1015.0 |
| 20260508190002 | 68 | 217 | 4.0 | 8.0 | 0.00 | 0.00 | 0.00 | 72 | 1015.1 |
| 20260508185707 | 69 | 147 | 2.0 | 9.0 | 0.00 | 0.00 | 0.00 | 73 | 1015.1 |
| 20260508184645 | 68 | 205 | 3.0 | 9.0 | 0.00 | 0.00 | 0.00 | 75 | 1015.3 |
| 20260508184603 | 67 | 201 | 3.0 | 10.0 | 0.00 | 0.00 | 0.00 | 75 | 1015.3 |
| 20260508183648 | 68 | 234 | 2.0 | 6.0 | 0.00 | 0.00 | 0.00 | 74 | 1015.3 |
| 20260508183003 | 66 | 230 | 3.0 | 7.0 | 0.00 | 0.00 | 0.00 | 76 | 1015.3 |
| 20260508182641 | 66 | 256 | 2.0 | 6.0 | 0.00 | 0.00 | 0.00 | 76 | 1015.3 |
| 20260508181614 | 65 | 278 | 2.0 | 6.0 | 0.00 | 0.00 | 0.00 | 77 | 1015.3 |
| 20260508180529 | 66 | 219 | 2.0 | 6.0 | 0.00 | 0.00 | 0.00 | 76 | 1015.5 |
| 20260508180108 | 65 | 212 | 3.0 | 7.0 | 0.00 | 0.00 | 0.00 | 77 | 1015.5 |
| 20260508175527 | 66 | 218 | 2.0 | 5.0 | 0.00 | 0.00 | 0.00 | 78 | 1015.5 |
| 20260508174547 | 66 | 203 | 0.0 | 4.0 | 0.00 | 0.00 | 0.00 | 76 | 1015.6 |
| 20260508174502 | 66 | 226 | 1.0 | 3.0 | 0.00 | 0.00 | 0.00 | 77 | 1015.6 |
| 20260508173527 | 64 | 134 | 1.0 | 4.0 | 0.00 | 0.00 | 0.00 | 80 | 1015.7 |
| 20260508173112 | 64 | 210 | 2.0 | 5.0 | 0.00 | 0.00 | 0.00 | 80 | 1015.8 |
| 20260508172510 | 63 | 124 | 0.0 | 2.0 | 0.00 | 0.00 | 0.00 | 84 | 1015.8 |
| 20260508171504 | 62 | 239 | 0.0 | 3.0 | 0.00 | 0.00 | 0.00 | 84 | 1015.9 |
| 20260508171442 | 62 | 330 | 0.0 | 2.0 | 0.00 | 0.00 | 0.00 | 84 | 1015.8 |
| 20260508170440 | 61 | 139 | 0.0 | 4.0 | 0.00 | 0.00 | 0.00 | 86 | 1015.7 |
| 20260508170002 | 60 | 250 | 1.0 | 5.0 | 0.00 | 0.00 | 0.00 | 85 | 1015.8 |
| 20260508165416 | 61 | 215 | 0.0 | 2.0 | 0.00 | 0.00 | 0.00 | 86 | 1015.7 |
| 20260508164602 | 60 | 138 | 2.0 | 5.0 | 0.00 | 0.00 | 0.00 | 86 | 1015.7 |
| 20260508164431 | 60 | 202 | 1.0 | 4.0 | 0.00 | 0.00 | 0.00 | 87 | 1015.7 |
| 20260508163404 | 60 | 152 | 1.0 | 4.0 | 0.00 | 0.00 | 0.00 | 88 | 1015.6 |
| 20260508163002 | 60 | 190 | 0.0 | 5.0 | 0.00 | 0.00 | 0.00 | 88 | 1015.6 |
| 20260508161602 | 59 | 221 | 0.0 | 3.0 | 0.00 | 0.00 | 0.00 | 88 | 1015.6 |
| 20260508161240 | 60 | 229 | 0.0 | 1.0 | 0.00 | 0.00 | 0.00 | 88 | 1015.6 |
| 20260508160251 | 60 | 213 | 0.0 | 0.0 | 0.00 | 0.00 | 0.00 | 89 | 1015.5 |
| 20260508155228 | 59 | 219 | 0.0 | 0.0 | 0.00 | 0.00 | 0.00 | 90 | 1015.5 |
| 20260508154502 | 59 | 143 | 0.0 | 2.0 | 0.00 | 0.00 | 0.00 | 90 | 1015.5 |
| 20260508154247 | 59 | 204 | 0.0 | 0.0 | 0.00 | 0.00 | 0.00 | 90 | 1015.5 |
| 20260508153258 | 59 | 207 | 0.0 | 0.0 | 0.00 | 0.00 | 0.00 | 91 | 1015.7 |
| 20260508153104 | 58 | 208 | 0.0 | 1.0 | 0.00 | 0.00 | 0.00 | 91 | 1015.7 |
| 20260508152319 | 59 | 166 | 0.0 | 0.0 | 0.00 | 0.00 | 0.00 | 91 | 1015.6 |
| 20260508151504 | 58 | 200 | 0.0 | 2.0 | 0.00 | 0.00 | 0.00 | 91 | 1015.7 |
| 20260508151259 | 58 | 201 | 0.0 | 1.0 | 0.00 | 0.00 | 0.00 | 91 | 1015.7 |
| 20260508150243 | 58 | 207 | 0.0 | 0.0 | 0.00 | 0.00 | 0.00 | 92 | 1015.7 |
| 20260508150003 | 58 | 207 | 0.0 | 1.0 | 0.00 | 0.00 | 0.00 | 93 | 1015.7 |
| 20260508145220 | 58 | 207 | 0.0 | 0.0 | 0.00 | 0.00 | 0.00 | 93 | 1015.7 |
| 20260508144606 | 57 | 207 | 0.0 | 1.0 | 0.00 | 0.00 | 0.00 | 93 | 1015.8 |
| 20260508144206 | 58 | 203 | 0.0 | 0.0 | 0.00 | 0.00 | 0.00 | 93 | 1015.8 |
| 20260508143221 | 58 | 258 | 0.0 | 1.0 | 0.00 | 0.00 | 0.00 | 93 | 1015.9 |
| 20260508143007 | 57 | 231 | 0.0 | 2.0 | 0.00 | 0.00 | 0.00 | 93 | 1015.9 |
| 20260508142243 | 58 | 146 | 0.0 | 1.0 | 0.00 | 0.00 | 0.00 | 93 | 1015.8 |
| 20260508141608 | 57 | 179 | 1.0 | 2.0 | 0.00 | 0.00 | 0.00 | 93 | 1015.7 |
| 20260508141241 | 58 | 23 | 0.0 | 0.0 | 0.00 | 0.00 | 0.00 | 93 | 1015.7 |
| 20260508140225 | 57 | 32 | 0.0 | 1.0 | 0.00 | 0.00 | 0.00 | 93 | 1015.6 |
| 20260508140114 | 57 | 23 | 0.0 | 1.0 | 0.00 | 0.00 | 0.00 | 93 | 1015.6 |
| 20260508135246 | 57 | 22 | 0.0 | 0.0 | 0.00 | 0.00 | 0.00 | 93 | 1015.6 |
| 20260508134503 | 57 | 22 | 0.0 | 1.0 | 0.00 | 0.00 | 0.00 | 93 | 1015.5 |
| 20260508134220 | 57 | 21 | 0.0 | 0.0 | 0.00 | 0.00 | 0.00 | 93 | 1015.4 |
| 20260508133104 | 57 | 46 | 0.0 | 2.0 | 0.00 | 0.00 | 0.00 | 93 | 1015.4 |
| 20260508132104 | 57 | 44 | 0.0 | 0.0 | 0.00 | 0.00 | 0.00 | 93 | 1015.2 |
| 20260508131503 | 57 | 44 | 0.0 | 1.0 | 0.00 | 0.00 | 0.00 | 93 | 1015.3 |
| 20260508131047 | 57 | 44 | 0.0 | 0.0 | 0.00 | 0.00 | 0.00 | 93 | 1015.3 |
| 20260508130052 | 57 | 47 | 0.0 | 0.0 | 0.00 | 0.00 | 0.00 | 93 | 1015.2 |
| 20260508130002 | 57 | 47 | 0.0 | 2.0 | 0.00 | 0.00 | 0.00 | 93 | 1015.2 |
| 20260508125020 | 57 | 63 | 0.0 | 0.0 | 0.00 | 0.00 | 0.00 | 93 | 1015.1 |
| 20260508124604 | 57 | 62 | 0.0 | 1.0 | 0.00 | 0.00 | 0.00 | 93 | 1015.0 |
| 20260508124040 | 57 | 63 | 0.0 | 0.0 | 0.00 | 0.00 | 0.00 | 93 | 1014.9 |
| 20260508123046 | 58 | 144 | 0.0 | 0.0 | 0.00 | 0.00 | 0.00 | 93 | 1014.9 |
| 20260508123003 | 57 | 144 | 0.0 | 1.0 | 0.00 | 0.00 | 0.00 | 93 | 1015.0 |
| 20260508121603 | 57 | 144 | 0.0 | 0.0 | 0.00 | 0.00 | 0.00 | 93 | 1014.8 |
| 20260508120915 | 58 | 145 | 0.0 | 0.0 | 0.00 | 0.00 | 0.00 | 93 | 1014.7 |
| 20260508114810 | 58 | 43 | 0.0 | 0.0 | 0.00 | 0.00 | 0.00 | 93 | 1014.7 |
| 20260508114511 | 57 | 42 | 0.0 | 1.0 | 0.00 | 0.00 | 0.00 | 93 | 1014.8 |
| 20260508113801 | 58 | 42 | 0.0 | 0.0 | 0.00 | 0.00 | 0.00 | 93 | 1014.7 |
| 20260508113126 | 57 | 30 | 0.0 | 1.0 | 0.00 | 0.00 | 0.00 | 93 | 1014.7 |
| 20260508112813 | 58 | 31 | 0.0 | 0.0 | 0.00 | 0.00 | 0.00 | 93 | 1014.7 |
| 20260508111836 | 58 | 44 | 0.0 | 1.0 | 0.00 | 0.00 | 0.00 | 93 | 1014.6 |
| 20260508111504 | 57 | 44 | 0.0 | 2.0 | 0.00 | 0.00 | 0.00 | 93 | 1014.7 |
| 20260508110824 | 57 | 40 | 0.0 | 3.0 | 0.00 | 0.00 | 0.00 | 93 | 1014.6 |
| 20260508110002 | 57 | 37 | 1.0 | 2.0 | 0.00 | 0.00 | 0.00 | 93 | 1014.7 |
| 20260508105833 | 57 | 52 | 0.0 | 2.0 | 0.00 | 0.00 | 0.00 | 93 | 1014.6 |
| 20260508104605 | 57 | 64 | 0.0 | 3.0 | 0.00 | 0.00 | 0.00 | 94 | 1014.7 |
| 20260508103705 | 57 | 42 | 0.0 | 1.0 | 0.00 | 0.00 | 0.00 | 94 | 1014.6 |
| 20260508103004 | 57 | 58 | 0.0 | 3.0 | 0.00 | 0.00 | 0.00 | 94 | 1014.7 |
| 20260508102636 | 57 | 58 | 0.0 | 2.0 | 0.00 | 0.00 | 0.00 | 94 | 1014.7 |
| 20260508101603 | 57 | 48 | 0.0 | 2.0 | 0.00 | 0.00 | 0.00 | 94 | 1014.7 |
| 20260508100532 | 57 | 19 | 0.0 | 0.0 | 0.00 | 0.00 | 0.00 | 94 | 1014.7 |
| 20260508100103 | 56 | 18 | 0.0 | 1.0 | 0.00 | 0.00 | 0.00 | 94 | 1014.8 |
| 20260508094503 | 56 | 36 | 0.0 | 1.0 | 0.00 | 0.00 | 0.00 | 94 | 1014.8 |
| 20260508094350 | 57 | 35 | 0.0 | 0.0 | 0.00 | 0.00 | 0.00 | 94 | 1014.7 |
| 20260508093407 | 56 | 36 | 0.0 | 0.0 | 0.00 | 0.00 | 0.00 | 95 | 1014.7 |
| 20260508093103 | 56 | 36 | 0.0 | 1.0 | 0.00 | 0.00 | 0.00 | 95 | 1014.8 |
| 20260508092412 | 56 | 36 | 0.0 | 0.0 | 0.00 | 0.00 | 0.00 | 95 | 1014.7 |
| 20260508091504 | 55 | 290 | 0.0 | 0.0 | 0.00 | 0.00 | 0.00 | 94 | 1015.0 |
| 20260508091349 | 55 | 290 | 0.0 | 0.0 | 0.00 | 0.00 | 0.00 | 94 | 1014.9 |
| 20260508090320 | 55 | 290 | 0.0 | 0.0 | 0.00 | 0.00 | 0.00 | 94 | 1014.9 |
| 20260508090004 | 54 | 290 | 0.0 | 1.0 | 0.00 | 0.00 | 0.00 | 93 | 1014.9 |
| 20260508085249 | 55 | 290 | 0.0 | 0.0 | 0.00 | 0.00 | 0.00 | 93 | 1014.9 |
| 20260508084604 | 55 | 290 | 0.0 | 1.0 | 0.00 | 0.00 | 0.00 | 93 | 1015.0 |
| 20260508084300 | 55 | 290 | 0.0 | 0.0 | 0.00 | 0.00 | 0.00 | 94 | 1015.0 |
| 20260508083228 | 55 | 289 | 0.0 | 0.0 | 0.00 | 0.00 | 0.00 | 94 | 1015.0 |
| 20260508083003 | 54 | 290 | 0.0 | 1.0 | 0.00 | 0.00 | 0.00 | 94 | 1015.2 |
| 20260508082210 | 55 | 289 | 0.0 | 0.0 | 0.00 | 0.00 | 0.00 | 93 | 1015.1 |
| 20260508081618 | 55 | 290 | 0.0 | 0.0 | 0.00 | 0.00 | 0.00 | 93 | 1015.2 |
| 20260508080020 | 55 | 290 | 0.0 | 0.0 | 0.00 | 0.00 | 0.00 | 94 | 1015.4 |
| 20260508075045 | 55 | 289 | 0.0 | 0.0 | 0.00 | 0.00 | 0.00 | 93 | 1015.3 |
| 20260508074052 | 55 | 289 | 0.0 | 0.0 | 0.00 | 0.00 | 0.00 | 93 | 1015.4 |
| 20260508073044 | 55 | 289 | 0.0 | 0.0 | 0.00 | 0.00 | 0.00 | 93 | 1015.4 |
| 20260508073003 | 54 | 288 | 0.0 | 1.0 | 0.00 | 0.00 | 0.00 | 93 | 1015.4 |
| 20260508072052 | 55 | 33 | 0.0 | 0.0 | 0.00 | 0.00 | 0.00 | 93 | 1015.3 |
| 20260508071609 | 54 | 33 | 0.0 | 1.0 | 0.00 | 0.00 | 0.00 | 92 | 1015.4 |
| 20260508071032 | 55 | 33 | 0.0 | 0.0 | 0.00 | 0.00 | 0.00 | 93 | 1015.4 |
| 20260508070104 | 55 | 33 | 0.0 | 1.0 | 0.00 | 0.00 | 0.00 | 92 | 1015.3 |
| 20260508070021 | 55 | 33 | 0.0 | 0.0 | 0.00 | 0.00 | 0.00 | 92 | 1015.3 |
| 20260508065009 | 55 | 33 | 0.0 | 0.0 | 0.00 | 0.00 | 0.00 | 92 | 1015.3 |
| 20260508064502 | 55 | 33 | 0.0 | 1.0 | 0.00 | 0.00 | 0.00 | 92 | 1015.4 |
| 20260508064031 | 56 | 33 | 0.0 | 0.0 | 0.00 | 0.00 | 0.00 | 93 | 1015.3 |
| 20260508063103 | 55 | 32 | 0.0 | 1.0 | 0.00 | 0.00 | 0.00 | 93 | 1015.3 |
| 20260508063044 | 56 | 32 | 0.0 | 0.0 | 0.00 | 0.00 | 0.00 | 93 | 1015.3 |